www.pogodaiklimat.ru

Погода и климат >> Архив погоды >> Уоллис и Футуна >> Остров Футуна


ПОГОДА на Острове Футуна

  • Прогноз погоды на Острове Футуна
  • Монитор погоды на Острове Футуна

АРХИВ ПОГОДЫ на Острове Футуна

Время (UTC), дата Ветер
(напр.,м/с)
 
Видим.   Явления Облачность Т
(С)
Тd
(С)
f
(%)
Тe
(С)
Тes
(С)
Комфортность P
(гПа)
Po
(гПа)
Тmin
(С)
Tmax
(С)
R
(мм)
R24
(мм)
S
(см)
00 10.09 СВ 1 н/о н/о +26.6 +22 +22 комфорт 1006.9
03 10.09 СВ 2 н/о н/о +27.6 +23 +23 комфорт 1005.3
06 10.09 СВ 1 н/о н/о +26.6 +22 +22 комфорт 1006.3
09 10.09 В 1 н/о н/о +26.7 +22 +22 комфорт 1008.8 +24.7 +28.2
12 10.09 В 1 н/о н/о +26.6 +22 +22 комфорт 1008.6 +26.4 +28.2
15 10.09 СВ 1 н/о н/о +25.8 +21 +21 комфорт 1007.3 +25.8 +28.2
18 10.09 СВ 1 н/о н/о +25.7 +21 +21 комфорт 1009.0 +25.4 +26.8
00 11.09 В 1 н/о н/о +30.5 +25 +25 комфорт 1009.4
03 11.09 Ю 1 н/о н/о +30.4 +25 +25 комфорт 1007.9
06 11.09 В 1 н/о н/о +27.2 +22 +22 комфорт 1009.1
09 11.09 СВ 1 н/о н/о +25.9 +22 +22 комфорт 1010.6 +25.8 +31.3
12 11.09 СВ 1 н/о н/о +25.6 +21 +21 комфорт 1009.8 +25.5 +31.3
15 11.09 СВ 1 н/о н/о +25.7 +21 +21 комфорт 1008.7 +25.5 +31.0
18 11.09 СВ 1 н/о н/о +25.3 +21 +21 комфорт 1009.7 +25.3 +27.2
00 12.09 ЮВ 1 н/о н/о +30.4 +25 +25 комфорт 1009.8
03 12.09 ЮВ 2 н/о н/о +29.4 +24 +24 комфорт 1007.8
06 12.09 СВ 1 н/о н/о +26.2 +22 +22 комфорт 1008.7
09 12.09 СВ 1 н/о н/о +25.5 +21 +21 комфорт 1009.6 +25.5 +30.7
12 12.09 В 1 н/о н/о +26.4 +22 +22 комфорт 1009.5 +25.5 +30.3
15 12.09 В 1 н/о н/о +26.1 +22 +22 комфорт 1008.6 +25.5 +29.7 0.2
18 12.09 ЮВ 2 н/о н/о +26.6 +22 +22 комфорт 1009.2 +25.5 +26.6
21 12.09 ЮВ 2 н/о н/о +28.8 +24 +24 комфорт 1010.2 +25.5 +30.7
00 13.09 ЮВ 2 н/о н/о +28.7 +24 +24 комфорт 1008.9 +25.5 +30.3
03 13.09 ЮВ 2 н/о н/о +28.5 +24 +24 комфорт 1007.6 +25.5 +29.8
06 13.09 ЮВ 2 н/о н/о +27.5 +23 +23 комфорт 1008.8 +25.5 +29.8
09 13.09 ЮВ 2 н/о н/о +27.2 +22 +22 комфорт 1010.6 +25.5 +29.8
12 13.09 СВ 1 н/о н/о +25.4 +21 +21 комфорт 1010.0 +25.4 +29.8 1
15 13.09 В 1 н/о н/о +25.4 +21 +21 комфорт 1008.0 +24.3 +29.8 5
18 13.09 В 1 н/о н/о +25.9 +22 +22 комфорт 1009.2 +24.3 +29.8 0.2
00 14.09 В 1 н/о н/о +26.6 +22 +22 комфорт 1008.8 1
03 14.09 В 2 н/о н/о +28.1 +23 +23 комфорт 1007.3
06 14.09 В 2 н/о н/о +26.5 +22 +22 комфорт 1008.5 1
09 14.09 СВ 2 н/о н/о +25.8 +21 +21 комфорт 1009.9 +25.6 +29.1 3
12 14.09 С 1 н/о н/о +24.8 +21 +21 комфорт 1010.5 +24.1 +29.1 4
15 14.09 СВ 1 н/о н/о +24.7 +21 +21 комфорт 1008.8 +24.1 +28.2
18 14.09 СВ 1 н/о н/о +25.0 +21 +21 комфорт 1009.4 +24.1 +26.6
00 15.09 В 2 н/о н/о +28.7 +24 +24 комфорт 1009.7
03 15.09 СВ 2 н/о н/о +28.9 +24 +24 комфорт 1007.9
06 15.09 СВ 2 н/о н/о +27.5 +23 +23 комфорт 1008.6
09 15.09 СВ 1 н/о н/о +27.5 +23 +23 комфорт 1010.3 +27.4 +29.9
12 15.09 СВ 1 н/о н/о +27.2 +22 +22 комфорт 1009.9 +27.1 +29.8
15 15.09 С 1 н/о н/о +25.8 +21 +21 комфорт 1008.6 +25.6 +29.1
18 15.09 СВ 1 н/о н/о +26.1 +22 +22 комфорт 1009.0 +25.6 +27.7
12 16.09 СВ 1 н/о н/о +25.9 +22 +22 комфорт 1010.4
15 16.09 СВ 1 н/о н/о +25.8 +21 +21 комфорт 1008.8
18 16.09 В 1 н/о н/о +26.4 +22 +22 комфорт 1009.7 0.2

 

Местоположение метеостанции Остров Футуна (Уоллис и Футуна): широта -14.31 долгота -178.12 высота над уровнем моря 36 м.

В архиве по умолчанию представлена погода на Острове Футуна за последнюю неделю. Архивные данные за месяц целиком и за предыдущие месяцы, начиная с января 2011 года, Вы можете получить, выбрав интересующий диапазон дат из раскрывающегося списка и нажав кнопку "Ввод!".


*Определитесь, кто Вы:
робот инопланетянин человек

Внимание! Время в таблицах - всемирное. Для получения местного времени необходимо прибавить поправку, которая равна 12 ч.

Смотрите также архив погоды в соседних городах и на ближайших метеорологических станциях:

Погода на Острове Увеа (Уоллис и Футуна) (240 км)
Погода на Острове Ниуафооу (Тонга) (303 км)
Погода на Лакемба (Фиджи) (442 км)
Погода в Аэропорту Матаахо (Тонга) (501 км)
Погода на Станции Mount Talu (Самоа) (590 км)
Погода на Станции Le Piu Tai (Самоа) (626 км)
Погода в Аэропорту Маота (Самоа) (636 км)
Погода в Аэропорту Вавау (Тонга) (650 км)
Погода на Острове Маноно (Самоа) (650 км)
Погода в Аэропорту Фалеоло (Самоа) (660 км)

Пояснения к столбцам:

Ветер - указаны скорость ветра в м/с - средняя за 10 мин, порывы в срок и между сроками (в фигурных скобках) и направление, откуда дует ветер: С - северный, СВ - северо-восточный, В - восточный, ЮВ - юго-восточный, Ю - южный, ЮЗ - юго-западный, З - западный, СЗ - северо-западный.
Видимость - горизонтальная дальность видимости в метрах или километрах. При видимости от 1 до 10 км при отсутствии осадков обычно наблюдается дымка, при ухудшении видимости до 1 км и менее - туман. В сухую погоду видимость может ухудшаться дымом, пылью или мглою.
Явления - указаны атмосферные явления, наблюдавшиеся в срок или в последний час перед сроком; фигурными скобками обозначены явления, наблюдавшиеся между сроками (за 1-3 часа до срока); квадратными скобками обозначены град или гололедные отложения с указанием их диаметра в мм.
Облачность - указаны через наклонную черту общая и нижняя облачность в баллах и высота нижней границы облаков в метрах; квадратными скобками обозначены формы облаков: Ci - перистые, Cs - перисто-слоистые, Cc - перисто-кучевые, Ac - высококучевые, As - высокослоистые, Sc - слоисто-кучевые, Ns - слоисто-дождевые, Cu - кучевые, Cb - кучево-дождевые. Подробнее классификацию облаков см. в Атласе облаков (PDF).
T - Температура воздуха - температура, измеренная на высоте 2 м над землей.
Td - Температура точки росы - температура, при понижении до которой содержащийся в воздухе водяной пар достигнет насыщения.
f - Относительная влажность воздуха - влажноcть воздуха, измеренная на высоте 2 м над землей.
Te - Эффективная температура - температура, которую ощущает одетый по сезону человек в тени. Характеристика душности погоды. При расчете учитывается влияние влажности воздуха и скорости ветра на теплоощущения человека.
Tes - Эффективная температура на солнце - температура, которую ощущает человек, с поправкой на солнечный нагрев. Характеристика знойности погоды. Зависит от высоты солнца над горизонтом, облачности и скорости ветра. Ночью, в пасмурную погоду, а также при ветре 12 м/с и более поправка равна нулю.
P - Атмосферное давление - приведенное к уровню моря атмосферное давление.
Po - Атмосферное давление - измеренное на уровне метеостанции атмосферное давление.
Tmin - Минимальная температура - минимум температуры воздуха на высоте 2 м над землей.
Tmax - Максимальная температура - максимум температуры воздуха на высоте 2 м над землей.
R - Количество осадков - Количество выпавших осадков за период времени, мм. При наведении курсора мыши на число - период времени, за который выпало указанное количество осадков.
R24 - Количество осадков - Количество выпавших осадков за 24 часа, мм.
S - Снежный покров - Высота снежного покрова, см. При наведении курсора мыши на число - состояние снежного покрова и степень покрытия местности в баллах.